CZ-4C R/B (48341 NORAD) Tracking and Keplerian Element Data

This shows tracking and keplerian element data for the satellite.

Feedback or suggestion? Click here.




ElementValue
Catalog48341
NameCZ-4C R/B
Epoch Orbit224
Epoch Day136.83695436
Epoch Year2021
RAAN234.7652
Inclination63.4522
Eccentricity0.0073579
Argument of Perigee51.216
Mean Anonmoly309.5418
Mean Motion13.59615494
Decay Rate-8E-07
L11 48341U 21037B 21136.83695436 -.00000080 00000-0 17820-4 0 9991
L22 48341 63.4522 234.7652 0073579 51.2160 309.5418 13.59615494 2244

Live tracking and technical data element details for CZ-4C R/B (NORAD 48341). CZ-4C R/B can be tracked NOW for your location showing map with azimuth and elevation plus other details from your city location.

Track the satellite on the map from your city or location and see movement details for azimuth, elevation, latitude, longitude, range, height, and movement on the map or in text.







IsCatalogInMostPopularTable: catalog: 48341, numindb: 7
Update: records affected: 1



GetName: 48341 CZ-4C R/B

Hit Count: updated at: Mon, 17 May 2021 15:06:16 GMT